Location: Songkhla
(7.2000°N, 100.6000°E)
Time: 02:53:29
(UTC+07:00)

AO-73 - Visible Passes

Search period start: 24 July 2021 00:00
Search period end: 03 August 2021 00:00
Orbit: 580 x 662 km, 97.6° (Epoch: 23 July)

Date Brightness Start Highest point End Pass type
(mag) Time Alt. Az. Time Alt. Az. Time Alt. Az.
24 Jul ? 04:53:20 10° N 04:57:47 77° WNW 05:01:25 16° SSW visible
25 Jul ? 05:11:16 10° N 05:15:28 42° WNW 05:19:20 12° SSW visible
26 Jul ? 03:54:36 10° ENE 03:57:15 15° E 03:59:55 10° SE visible
26 Jul ? 05:29:32 10° NNW 05:33:09 24° WNW 05:36:49 10° SW visible
27 Jul ? 04:11:10 10° NE 04:14:57 27° E 04:17:59 14° SSE visible
28 Jul ? 04:28:20 10° NNE 04:32:39 47° E 04:35:54 17° S visible
29 Jul ? 04:45:51 10° NNE 04:50:21 85° E 04:53:49 17° S visible
30 Jul ? 05:03:39 10° N 05:08:03 53° WNW 05:11:43 15° SSW visible
31 Jul ? 03:47:52 10° ENE 03:49:48 13° E 03:51:44 10° SE visible
31 Jul ? 05:21:47 10° NNW 05:25:43 30° WNW 05:29:38 10° SW visible
01 Aug ? 04:04:01 10° NE 04:07:30 22° E 04:10:21 13° SE visible
01 Aug ? 05:40:23 10° NW 05:43:23 18° WNW 05:46:24 10° WSW visible
02 Aug ? 04:21:00 10° NNE 04:25:13 38° E 04:28:16 17° SSE visible
